When you browse on this site, cookies collect data to enhance your experience and personalize the content and advertising you see.
Visit our Privacy Policy to learn more. By continuing to use the site, you agree to this use of cookies and data.
  • In United Kingdom
  • List of Countries
  • For 7 days
  • Water Temperature
  • Weather Map
  • Weather Widgets
  • user-avatar
    Login

    Hourly Weather Bedford

    Today, 21 November, Thursday

    Time Temperature Precipitation Wind Pressure Humidity
    00:00 0°C° 0 mm 4 mps 753 mmHg 91%
    01:00 0°C° 0 mm 4 mps 753 mmHg 91%
    02:00 0°C° 0 mm 4 mps 752 mmHg 92%
    03:00 0°C° 0 mm 4 mps 752 mmHg 93%
    04:00 0°C° 0 mm 4 mps 752 mmHg 93%
    05:00 +1°C° 0 mm 3 mps 752 mmHg 93%
    06:00 +1°C° 0 mm 3 mps 752 mmHg 93%
    07:00 0°C° 0 mm 4 mps 751 mmHg 93%
    08:00 +1°C° 0 mm 4 mps 751 mmHg 92%
    09:00 +2°C° 0 mm 5 mps 751 mmHg 91%
    10:00 +2°C° 0 mm 5 mps 750 mmHg 89%
    11:00 +3°C° 0 mm 5 mps 750 mmHg 87%
    12:00 +4°C° 0 mm 6 mps 750 mmHg 86%
    13:00 +5°C° 0 mm 5 mps 749 mmHg 87%
    14:00 +5°C° 0 mm 5 mps 748 mmHg 88%
    15:00 +5°C° 0 mm 5 mps 748 mmHg 89%
    16:00 +5°C° 0 mm 5 mps 748 mmHg 89%
    17:00 +4°C° 0 mm 4 mps 747 mmHg 90%
    18:00 +4°C° 0 mm 4 mps 747 mmHg 91%
    19:00 +5°C° 0.1 mm 5 mps 747 mmHg 91%
    20:00 +5°C° 0.1 mm 5 mps 746 mmHg 92%
    21:00 +5°C° 0.1 mm 5 mps 746 mmHg 92%
    22:00 +6°C° 0.5 mm 5 mps 746 mmHg 93%
    23:00 +6°C° 0.5 mm 4 mps 746 mmHg 94%

    Tomorrow, 22 November, Friday

    Time Temperature Precipitation Wind Pressure Humidity
    00:00 +6°C° 0.5 mm 4 mps 745 mmHg 96%
    01:00 +6°C° 0.1 mm 4 mps 745 mmHg 95%
    02:00 +6°C° 0.1 mm 4 mps 745 mmHg 94%
    03:00 +6°C° 0.1 mm 4 mps 744 mmHg 93%
    04:00 +6°C° 0 mm 4 mps 744 mmHg 93%
    05:00 +5°C° 0 mm 4 mps 744 mmHg 92%
    06:00 +5°C° 0 mm 5 mps 744 mmHg 92%
    07:00 +5°C° 0.1 mm 5 mps 744 mmHg 91%
    08:00 +6°C° 0.1 mm 5 mps 744 mmHg 90%
    09:00 +5°C° 0.1 mm 6 mps 744 mmHg 89%
    10:00 +7°C° 0 mm 6 mps 745 mmHg 86%
    11:00 +8°C° 0 mm 6 mps 745 mmHg 83%
    12:00 +9°C° 0 mm 6 mps 745 mmHg 80%
    13:00 +8°C° 0.1 mm 5 mps 745 mmHg 82%
    14:00 +8°C° 0.1 mm 5 mps 745 mmHg 83%
    15:00 +7°C° 0.1 mm 4 mps 745 mmHg 85%
    16:00 +7°C° 0 mm 5 mps 745 mmHg 86%
    17:00 +7°C° 0 mm 5 mps 745 mmHg 87%
    18:00 +7°C° 0 mm 5 mps 745 mmHg 88%
    19:00 +7°C° 0 mm 6 mps 745 mmHg 88%
    20:00 +7°C° 0 mm 6 mps 745 mmHg 87%
    21:00 +5°C° 0 mm 6 mps 744 mmHg 87%
    22:00 +7°C° 0 mm 6 mps 744 mmHg 88%
    23:00 +7°C° 0 mm 6 mps 744 mmHg 90%

    Day after tomorrow, 23 November, Saturday

    Time Temperature Precipitation Wind Pressure Humidity
    00:00 +7°C° 0 mm 6 mps 744 mmHg 91%
    01:00 +7°C° 0 mm 6 mps 744 mmHg 90%
    02:00 +7°C° 0 mm 6 mps 743 mmHg 88%
    03:00 +7°C° 0 mm 6 mps 743 mmHg 87%
    04:00 +7°C° 0.2 mm 6 mps 743 mmHg 88%
    05:00 +7°C° 0.2 mm 6 mps 743 mmHg 89%
    06:00 +7°C° 0.2 mm 6 mps 742 mmHg 91%
    07:00 +7°C° 0.4 mm 6 mps 743 mmHg 91%
    08:00 +7°C° 0.4 mm 6 mps 743 mmHg 92%
    09:00 +7°C° 0.4 mm 6 mps 743 mmHg 92%
    10:00 +7°C° 0.3 mm 6 mps 743 mmHg 92%
    11:00 +7°C° 0.3 mm 5 mps 743 mmHg 92%
    12:00 +7°C° 0.3 mm 5 mps 743 mmHg 92%
    13:00 +8°C° 0.3 mm 5 mps 742 mmHg 92%
    14:00 +8°C° 0.3 mm 5 mps 742 mmHg 93%
    15:00 +8°C° 0.3 mm 4 mps 742 mmHg 94%
    16:00 +8°C° 0.4 mm 4 mps 742 mmHg 94%
    17:00 +8°C° 0.4 mm 4 mps 743 mmHg 95%
    18:00 +8°C° 0.4 mm 4 mps 743 mmHg 96%
    19:00 +8°C° 0 mm 4 mps 743 mmHg 96%
    20:00 +10°C° 0 mm 4 mps 744 mmHg 96%
    21:00 +10°C° 0 mm 4 mps 744 mmHg 95%
    22:00 +10°C° 0 mm 4 mps 744 mmHg 95%
    23:00 +10°C° 0 mm 4 mps 745 mmHg 95%

    24 November, Sunday

    Time Temperature Precipitation Wind Pressure Humidity
    00:00 +10°C° 0 mm 4 mps 745 mmHg 95%
    01:00 +8°C° 0 mm 4 mps 746 mmHg 94%
    02:00 +8°C° 0 mm 5 mps 746 mmHg 93%
    03:00 +8°C° 0 mm 5 mps 747 mmHg 92%
    04:00 +8°C° 0 mm 5 mps 747 mmHg 91%
    05:00 +7°C° 0 mm 6 mps 748 mmHg 91%
    06:00 +7°C° 0 mm 6 mps 748 mmHg 90%
    07:00 +7°C° 0.3 mm 6 mps 749 mmHg 90%
    08:00 +7°C° 0.3 mm 6 mps 750 mmHg 90%
    09:00 +5°C° 0.3 mm 6 mps 750 mmHg 90%
    10:00 +6°C° 1.1 mm 7 mps 750 mmHg 91%
    11:00 +6°C° 1.1 mm 7 mps 751 mmHg 91%
    12:00 +6°C° 1.1 mm 7 mps 751 mmHg 91%
    13:00 +7°C° 0.6 mm 6 mps 751 mmHg 89%
    14:00 +8°C° 0.6 mm 6 mps 751 mmHg 87%
    15:00 +8°C° 0.6 mm 5 mps 752 mmHg 85%
    16:00 +7°C° 0 mm 4 mps 752 mmHg 87%
    17:00 +7°C° 0 mm 4 mps 751 mmHg 90%
    18:00 +6°C° 0 mm 4 mps 751 mmHg 92%
    19:00 +7°C° 0.1 mm 4 mps 751 mmHg 91%
    20:00 +7°C° 0.1 mm 5 mps 751 mmHg 90%
    21:00 +7°C° 0.1 mm 5 mps 751 mmHg 88%
    22:00 +8°C° 0 mm 6 mps 750 mmHg 88%
    23:00 +8°C° 0 mm 7 mps 750 mmHg 87%

    25 November, Monday

    Time Temperature Precipitation Wind Pressure Humidity
    00:00 +7°C° 0 mm 8 mps 749 mmHg 87%
    01:00 +7°C° 0.3 mm 8 mps 748 mmHg 88%
    02:00 +8°C° 0.3 mm 9 mps 746 mmHg 88%
    03:00 +8°C° 0.3 mm 9 mps 745 mmHg 89%
    04:00 +8°C° 0.6 mm 9 mps 745 mmHg 87%
    05:00 +10°C° 0.6 mm 8 mps 745 mmHg 85%
    06:00 +10°C° 0.6 mm 8 mps 744 mmHg 84%
    07:00 +10°C° 0.1 mm 7 mps 745 mmHg 83%
    08:00 +10°C° 0.1 mm 7 mps 745 mmHg 83%
    09:00 +9°C° 0.1 mm 7 mps 745 mmHg 82%
    10:00 +9°C° 0 mm 7 mps 746 mmHg 79%
    11:00 +10°C° 0 mm 8 mps 746 mmHg 76%
    12:00 +10°C° 0 mm 9 mps 746 mmHg 73%
    13:00 +10°C° 0 mm 8 mps 746 mmHg 76%
    14:00 +10°C° 0 mm 8 mps 746 mmHg 79%
    15:00 +10°C° 0 mm 8 mps 746 mmHg 82%
    16:00 +9°C° 0 mm 8 mps 746 mmHg 83%
    17:00 +9°C° 0 mm 7 mps 747 mmHg 84%
    18:00 +8°C° 0 mm 7 mps 747 mmHg 85%
    19:00 +7°C° 0 mm 8 mps 747 mmHg 84%
    20:00 +7°C° 0 mm 8 mps 747 mmHg 84%
    21:00 +7°C° 0 mm 8 mps 748 mmHg 83%
    22:00 +7°C° 0 mm 9 mps 748 mmHg 83%
    23:00 +7°C° 0 mm 9 mps 748 mmHg 82%

    26 November, Tuesday

    Time Temperature Precipitation Wind Pressure Humidity
    00:00 +7°C° 0 mm 9 mps 747 mmHg 82%
    01:00 +7°C° 0 mm 9 mps 748 mmHg 81%
    02:00 +7°C° 0 mm 9 mps 748 mmHg 81%
    03:00 +7°C° 0 mm 9 mps 748 mmHg 80%
    04:00 +7°C° 0 mm 8 mps 748 mmHg 82%
    05:00 +8°C° 0 mm 7 mps 749 mmHg 83%
    06:00 +7°C° 0 mm 6 mps 749 mmHg 84%
    07:00 +7°C° 0 mm 6 mps 750 mmHg 85%
    08:00 +8°C° 0 mm 6 mps 750 mmHg 86%
    09:00 +8°C° 0 mm 6 mps 750 mmHg 88%
    10:00 +8°C° 0 mm 5 mps 750 mmHg 86%
    11:00 +9°C° 0 mm 5 mps 750 mmHg 84%
    12:00 +9°C° 0 mm 5 mps 750 mmHg 82%
    13:00 +9°C° 0 mm 5 mps 750 mmHg 85%
    14:00 +9°C° 0 mm 5 mps 750 mmHg 88%
    15:00 +10°C° 0 mm 4 mps 749 mmHg 91%
    16:00 +10°C° 0 mm 4 mps 749 mmHg 91%
    17:00 +10°C° 0 mm 4 mps 749 mmHg 91%
    18:00 +10°C° 0 mm 4 mps 748 mmHg 92%
    19:00 +9°C° 0.2 mm 5 mps 748 mmHg 92%
    20:00 +9°C° 0.2 mm 5 mps 747 mmHg 92%
    21:00 +10°C° 0.2 mm 5 mps 747 mmHg 92%
    22:00 +10°C° 0.7 mm 6 mps 746 mmHg 92%
    23:00 +10°C° 0.7 mm 7 mps 745 mmHg 93%
    Show more